Date String (YYYY-MM-DD hh:mm:ss) UTC,Instrument flags,Ambient pressure (hPa),Sample flow (lpm),Bypass flow (lpm),Sample temperature (°C),Ambient temperature (°C),ASC tube jacket temperature (°C),LED temperature (°C),Box temperature (°C),Sample RH (%),Span deviation,Mass concentration (μg/m³),Mass concentration (μg/m³),Mass concentration (μg/m³)
DateTimeUTC,F1_M11,P_M11,Q1_M11,Q2_M11,T1_M11,T2_M11,T3_M11,T4_M11,T5_M11,U1_M11,ZSPAN_M11,X0_M11,X2_M11,X1_M11
2022-03-30 10:00:00,,0818.8,5.00,0.00,21.2,20.1,00.0,30.4,22.9,15.3,0000.0,0004.81,0003.24,0003.02
2022-03-30 10:01:00,,0818.8,5.00,0.00,21.2,20.1,00.0,30.3,22.9,15.3,0000.0,0004.77,0003.24,0003.03
2022-03-30 10:02:00,,0818.8,5.00,0.00,21.2,20.1,00.0,30.3,22.9,15.3,0000.0,0004.80,0003.25,0003.04
2022-03-30 10:03:00,,0818.8,5.00,0.00,21.2,20.2,00.0,30.3,22.9,15.4,0000.0,0004.83,0003.26,0003.06
2022-03-30 10:04:00,,0818.7,5.00,0.00,21.2,20.2,00.0,30.3,22.9,15.4,0000.0,0004.98,0003.27,0003.08
2022-03-30 10:05:00,,0818.7,4.98,0.00,21.2,20.3,00.0,30.3,23.0,15.5,0000.0,0004.99,0003.28,0003.11
2022-03-30 10:06:00,,0818.7,5.00,0.00,21.2,20.4,00.0,30.3,23.0,15.4,0000.0,0005.06,0003.29,0003.12
2022-03-30 10:07:00,,0818.7,5.00,0.00,21.2,20.4,00.0,30.3,23.0,15.4,0000.0,0004.95,0003.28,0003.12
2022-03-30 10:08:00,,0818.7,5.01,0.00,21.2,20.3,00.0,30.3,23.0,15.4,0000.0,0004.98,0003.29,0003.13
2022-03-30 10:09:00,,0818.7,4.99,0.00,21.2,20.3,00.0,30.3,23.0,15.4,0000.0,0004.82,0003.30,0003.13
2022-03-30 10:10:00,,0818.8,5.00,0.00,21.2,20.3,00.0,30.3,23.0,15.4,0000.0,0004.17,0003.31,0003.14
2022-03-30 10:11:00,,0818.7,5.00,0.00,21.3,20.5,00.0,30.3,23.0,15.5,0000.0,0004.21,0003.32,0003.14
2022-03-30 10:12:00,,0818.7,5.02,0.00,21.4,21.3,00.0,30.4,23.2,15.4,0000.0,0004.21,0003.32,0003.15
2022-03-30 10:13:00,,0818.7,4.99,0.00,21.5,22.3,00.0,30.4,23.6,15.3,0000.0,0004.23,0003.33,0003.15
2022-03-30 10:14:00,,0818.7,5.00,0.00,21.7,22.8,00.0,30.5,23.8,15.1,0000.0,0004.25,0003.33,0003.14
2022-03-30 10:15:00,,0818.8,4.99,0.00,21.8,22.5,00.0,30.5,23.8,15.1,0000.0,0004.16,0003.33,0003.15
2022-03-30 10:16:00,,0818.8,5.00,0.00,21.8,22.2,00.0,30.5,23.8,15.1,0000.0,0004.16,0003.34,0003.15
2022-03-30 10:17:00,,0818.8,5.01,0.00,21.8,21.9,00.0,30.6,23.8,15.0,0000.0,0004.10,0003.33,0003.17
2022-03-30 10:18:00,,0818.8,4.99,0.00,21.8,21.6,00.0,30.6,23.7,14.9,0000.0,0004.12,0003.34,0003.18
2022-03-30 10:19:00,,0818.7,5.02,0.00,21.8,21.5,00.0,30.6,23.6,14.9,0000.0,0004.17,0003.35,0003.18
2022-03-30 10:20:00,,0818.7,5.00,0.00,21.8,21.3,00.0,30.6,23.6,15.0,0000.0,0004.18,0003.37,0003.20
2022-03-30 10:21:00,,0818.7,5.00,0.00,21.8,21.2,00.0,30.6,23.6,15.1,0000.0,0004.23,0003.38,0003.20
2022-03-30 10:22:00,,0818.6,4.99,0.00,21.8,21.1,00.0,30.7,23.6,15.1,0000.0,0005.38,0003.38,0003.21
2022-03-30 10:23:00,,0818.6,5.01,0.00,21.8,21.0,00.0,30.7,23.5,15.0,0000.0,0005.72,0003.40,0003.23
2022-03-30 10:24:00,,0818.5,5.00,0.00,21.7,20.9,00.0,30.7,23.5,15.1,0000.0,0005.76,0003.42,0003.24
2022-03-30 10:25:00,,0818.6,5.02,0.00,21.7,20.8,00.0,30.7,23.5,15.0,0000.0,0005.74,0003.42,0003.26
2022-03-30 10:26:00,,0818.6,5.00,0.00,21.7,20.6,00.0,30.7,23.4,14.9,0000.0,0005.68,0003.42,0003.27
2022-03-30 10:27:00,,0818.5,4.99,0.00,21.7,20.7,00.0,30.7,23.4,15.0,0000.0,0005.67,0003.43,0003.29
2022-03-30 10:28:00,,0818.5,5.00,0.00,21.7,20.7,00.0,30.7,23.4,15.0,0000.0,0005.76,0003.44,0003.29
2022-03-30 10:29:00,,0818.5,5.00,0.00,21.7,20.8,00.0,30.7,23.5,15.0,0000.0,0005.68,0003.43,0003.30
2022-03-30 10:30:00,,0818.5,5.00,0.00,21.7,20.9,00.0,30.7,23.5,15.0,0000.0,0005.63,0003.43,0003.31
2022-03-30 10:31:00,,0818.5,4.99,0.00,21.7,20.9,00.0,30.7,23.5,15.0,0000.0,0005.54,0003.42,0003.32
2022-03-30 10:32:00,,0818.5,5.00,0.00,21.7,21.0,00.0,30.7,23.5,15.0,0000.0,0005.41,0003.41,0003.33
2022-03-30 10:33:00,,0818.5,5.01,0.00,21.7,21.0,00.0,30.7,23.5,15.1,0000.0,0004.25,0003.42,0003.34
2022-03-30 10:34:00,,0818.5,5.01,0.00,21.7,21.1,00.0,30.7,23.5,15.1,0000.0,0003.93,0003.41,0003.34
2022-03-30 10:35:00,,0818.5,4.99,0.00,21.7,21.1,00.0,30.7,23.5,15.1,0000.0,0003.89,0003.41,0003.34
2022-03-30 10:36:00,,0818.5,5.01,0.00,21.7,21.1,00.0,30.7,23.6,15.0,0000.0,0004.03,0003.42,0003.34
2022-03-30 10:37:00,,0818.5,5.01,0.00,21.8,21.2,00.0,30.7,23.6,15.0,0000.0,0004.10,0003.43,0003.34
2022-03-30 10:38:00,,0818.6,4.99,0.00,21.8,21.2,00.0,30.7,23.6,15.1,0000.0,0004.97,0003.43,0003.34
2022-03-30 10:39:00,,0818.6,5.01,0.00,21.8,21.2,00.0,30.7,23.6,15.1,0000.0,0005.18,0003.41,0003.33
2022-03-30 10:40:00,,0818.6,5.01,0.00,21.8,21.2,00.0,30.8,23.6,15.2,0000.0,0006.24,0003.42,0003.33
2022-03-30 10:41:00,,0818.6,4.99,0.00,21.8,21.2,00.0,30.8,23.6,15.2,0000.0,0006.38,0003.43,0003.33
2022-03-30 10:42:00,,0818.6,5.00,0.00,21.8,21.2,00.0,30.8,23.6,15.2,0000.0,0006.44,0003.44,0003.34
2022-03-30 10:43:00,,0818.6,5.00,0.00,21.8,21.2,00.0,30.8,23.6,15.2,0000.0,0006.53,0003.46,0003.33
2022-03-30 10:44:00,,0818.6,4.99,0.00,21.8,21.1,00.0,30.8,23.5,15.2,0000.0,0007.78,0003.46,0003.32
2022-03-30 10:45:00,,0818.5,5.00,0.00,21.7,21.1,00.0,30.8,23.5,15.2,0000.0,0007.80,0003.46,0003.32
2022-03-30 10:46:00,,0818.5,5.00,0.00,21.7,21.0,00.0,30.7,23.4,15.2,0000.0,0007.81,0003.47,0003.32
2022-03-30 10:47:00,,0818.5,5.00,0.00,21.7,21.0,00.0,30.7,23.3,15.2,0000.0,0007.76,0003.45,0003.31
2022-03-30 10:48:00,,0818.5,5.01,0.00,21.6,20.9,00.0,30.7,23.3,15.3,0000.0,0007.78,0003.45,0003.30
2022-03-30 10:49:00,,0818.4,5.01,0.00,21.6,20.8,00.0,30.7,23.2,15.3,0000.0,0007.27,0003.43,0003.29
2022-03-30 10:50:00,,0818.4,5.01,0.00,21.5,20.8,00.0,30.7,23.2,15.4,0000.0,0006.92,0003.43,0003.30
2022-03-30 10:51:00,,0818.4,5.01,0.00,21.5,20.7,00.0,30.7,23.1,15.3,0000.0,0006.06,0003.42,0003.29
2022-03-30 10:52:00,,0818.4,5.01,0.00,21.5,20.6,00.0,30.6,23.1,15.3,0000.0,0005.93,0003.43,0003.28
2022-03-30 10:53:00,,0818.4,5.00,0.00,21.4,20.6,00.0,30.6,23.0,15.3,0000.0,0006.98,0003.42,0003.26
2022-03-30 10:54:00,,0818.4,5.00,0.00,21.4,20.5,00.0,30.6,23.0,15.3,0000.0,0006.90,0003.40,0003.26
2022-03-30 10:55:00,,0818.5,4.99,0.00,21.4,20.5,00.0,30.6,23.0,15.4,0000.0,0005.50,0003.40,0003.27
2022-03-30 10:56:00,,0818.5,5.00,0.00,21.4,20.5,00.0,30.6,23.0,15.4,0000.0,0005.29,0003.40,0003.27
2022-03-30 10:57:00,,0818.5,5.01,0.00,21.4,20.9,00.0,30.6,23.1,15.5,0000.0,0005.33,0003.42,0003.27
2022-03-30 10:58:00,,0818.5,5.00,0.00,21.5,21.7,00.0,30.6,23.4,15.4,0000.0,0005.28,0003.42,0003.27
2022-03-30 10:59:00,,0818.5,4.99,0.00,21.7,22.6,00.0,30.7,23.7,15.3,0000.0,0005.23,0003.42,0003.28
